Time,TemperatureF,DewpointF,PressureIn,WindDirection,WindDirectionDegrees,WindSpeedMPH,WindSpeedGustMPH,Humidity,HourlyPrecipIn,Conditions,Clouds,dailyrainin,SoftwareType,DateUTC
2013-05-12 00:00:00,66.3,65.1,29.94,North,-999,0.0,0.0,96,0.00,,,-99.99,WeatherLink 5.6,2013-05-12 05:00:00,
2013-05-12 00:30:00,66.1,64.9,29.94,North,-999,0.0,0.0,96,0.00,,,-99.99,WeatherLink 5.6,2013-05-12 05:30:00,
2013-05-12 01:00:00,67.1,66.2,29.94,WNW,292,0.0,4.0,97,0.00,,,-99.99,WeatherLink 5.6,2013-05-12 06:00:00,
2013-05-12 01:30:00,67.8,66.9,29.94,WNW,292,1.0,6.0,97,0.00,,,-99.99,WeatherLink 5.6,2013-05-12 06:30:00,
2013-05-12 02:00:00,67.1,65.9,29.93,West,270,0.0,4.0,96,0.00,,,-99.99,WeatherLink 5.6,2013-05-12 07:00:00,
2013-05-12 02:30:00,66.3,65.1,29.92,WNW,292,0.0,2.0,96,0.00,,,-99.99,WeatherLink 5.6,2013-05-12 07:30:00,
2013-05-12 03:00:00,65.8,64.3,29.92,NNW,337,1.0,4.0,95,0.00,,,-99.99,WeatherLink 5.6,2013-05-12 08:00:00,
2013-05-12 03:30:00,65.3,63.2,29.93,North,0,0.0,6.0,93,0.00,,,-99.99,WeatherLink 5.6,2013-05-12 08:30:00,
2013-05-12 04:00:00,64.3,61.9,29.94,NNW,337,1.0,6.0,92,0.00,,,-99.99,WeatherLink 5.6,2013-05-12 09:00:00,
2013-05-12 04:30:00,63.7,61.3,29.93,North,0,0.0,4.0,92,0.00,,,-99.99,WeatherLink 5.6,2013-05-12 09:30:00,
2013-05-12 05:00:00,63.2,60.2,29.94,North,0,1.0,6.0,90,0.01,,,-99.99,WeatherLink 5.6,2013-05-12 10:00:00,
2013-05-12 05:30:00,62.7,59.4,29.95,NNE,22,1.0,7.0,89,0.01,,,-99.99,WeatherLink 5.6,2013-05-12 10:30:00,
2013-05-12 06:00:00,62.3,59.0,29.96,North,0,1.0,6.0,89,0.00,,,-99.99,WeatherLink 5.6,2013-05-12 11:00:00,
2013-05-12 06:30:00,61.8,58.8,29.97,NNE,22,0.0,4.0,90,0.00,,,-99.99,WeatherLink 5.6,2013-05-12 11:30:00,
2013-05-12 07:00:00,62.3,59.3,29.98,North,0,0.0,6.0,90,0.00,,,-99.99,WeatherLink 5.6,2013-05-12 12:00:00,
2013-05-12 07:30:00,64.2,59.3,29.98,NNE,22,2.0,9.0,84,0.00,,,-99.99,WeatherLink 5.6,2013-05-12 12:30:00,
2013-05-12 08:00:00,66.8,59.7,29.99,ENE,67,4.0,10.0,78,0.00,,,-99.99,WeatherLink 5.6,2013-05-12 13:00:00,
2013-05-12 08:30:00,68.8,59.0,30.00,ENE,67,4.0,11.0,71,0.00,,,-99.99,WeatherLink 5.6,2013-05-12 13:30:00,
2013-05-12 09:00:00,71.3,58.5,30.00,NE,45,4.0,13.0,64,0.00,,,-99.99,WeatherLink 5.6,2013-05-12 14:00:00,
2013-05-12 09:30:00,72.3,56.2,30.00,NE,45,3.0,14.0,57,0.00,,,-99.99,WeatherLink 5.6,2013-05-12 14:30:00,
2013-05-12 10:00:00,72.3,54.2,30.00,NE,45,5.0,15.0,53,0.00,,,-99.99,WeatherLink 5.6,2013-05-12 15:00:00,
2013-05-12 10:30:00,73.9,55.2,30.01,NE,45,3.0,13.0,52,0.00,,,-99.99,WeatherLink 5.6,2013-05-12 15:30:00,
2013-05-12 11:00:00,73.7,55.5,30.00,ENE,67,3.0,11.0,53,0.00,,,-99.99,WeatherLink 5.6,2013-05-12 16:00:00,
2013-05-12 11:30:00,75.1,57.8,30.00,NE,45,2.0,15.0,55,0.00,,,-99.99,WeatherLink 5.6,2013-05-12 16:30:00,
2013-05-12 12:00:00,76.1,55.5,30.01,NE,45,2.0,12.0,49,0.00,,,-99.99,WeatherLink 5.6,2013-05-12 17:00:00,
2013-05-12 12:30:00,77.6,54.6,30.01,NE,45,1.0,9.0,45,0.00,,,-99.99,WeatherLink 5.6,2013-05-12 17:30:00,
2013-05-12 13:00:00,77.6,56.9,30.00,NE,45,2.0,14.0,49,0.00,,,-99.99,WeatherLink 5.6,2013-05-12 18:00:00,
2013-05-12 13:30:00,77.6,57.5,30.01,ENE,67,2.0,12.0,50,0.00,,,-99.99,WeatherLink 5.6,2013-05-12 18:30:00,
2013-05-12 14:00:00,78.6,56.7,30.01,ENE,67,2.0,10.0,47,0.00,,,-99.99,WeatherLink 5.6,2013-05-12 19:00:00,
2013-05-12 14:30:00,77.4,58.4,30.00,NW,315,1.0,7.0,52,0.00,,,-99.99,WeatherLink 5.6,2013-05-12 19:30:00,
2013-05-12 15:00:00,78.5,58.3,29.98,North,0,0.0,13.0,50,0.00,,,-99.99,WeatherLink 5.6,2013-05-12 20:00:00,
2013-05-12 15:30:00,77.6,56.9,29.98,NE,45,1.0,9.0,49,0.00,,,-99.99,WeatherLink 5.6,2013-05-12 20:30:00,
2013-05-12 16:00:00,79.8,57.8,29.98,WNW,292,1.0,11.0,47,0.00,,,-99.99,WeatherLink 5.6,2013-05-12 21:00:00,
2013-05-12 16:30:00,79.6,57.6,29.97,NE,45,1.0,11.0,47,0.00,,,-99.99,WeatherLink 5.6,2013-05-12 21:30:00,
2013-05-12 17:00:00,80.7,58.0,29.98,ENE,67,1.0,10.0,46,0.00,,,-99.99,WeatherLink 5.6,2013-05-12 22:00:00,
2013-05-12 17:30:00,79.8,57.2,29.97,NE,45,2.0,10.0,46,0.00,,,-99.99,WeatherLink 5.6,2013-05-12 22:30:00,
2013-05-12 18:00:00,78.6,57.8,29.97,NE,45,1.0,7.0,49,0.00,,,-99.99,WeatherLink 5.6,2013-05-12 23:00:00,
2013-05-12 18:30:00,76.7,58.3,29.97,NE,45,1.0,7.0,53,0.00,,,-99.99,WeatherLink 5.6,2013-05-12 23:30:00,
2013-05-12 19:00:00,76.8,59.4,29.97,North,-999,0.0,0.0,55,0.00,,,-99.99,WeatherLink 5.6,2013-05-13 00:00:00,
2013-05-12 19:30:00,75.4,60.1,29.99,NE,45,0.0,1.0,59,0.00,,,-99.99,WeatherLink 5.6,2013-05-13 00:30:00,
2013-05-12 20:00:00,73.2,59.8,29.99,North,-999,0.0,0.0,63,0.00,,,-99.99,WeatherLink 5.6,2013-05-13 01:00:00,
2013-05-12 20:30:00,70.6,59.1,30.00,NNE,22,0.0,3.0,67,0.00,,,-99.99,WeatherLink 5.6,2013-05-13 01:30:00,
2013-05-12 21:00:00,69.8,58.3,30.00,NE,45,0.0,4.0,67,0.00,,,-99.99,WeatherLink 5.6,2013-05-13 02:00:00,
2013-05-12 21:30:00,68.9,57.9,30.01,NE,45,0.0,6.0,68,0.00,,,-99.99,WeatherLink 5.6,2013-05-13 02:30:00,
2013-05-12 22:00:00,67.8,57.3,30.01,NE,45,0.0,5.0,69,0.00,,,-99.99,WeatherLink 5.6,2013-05-13 03:00:00,
2013-05-12 22:30:00,66.9,56.8,30.02,NE,45,1.0,8.0,70,0.00,,,-99.99,WeatherLink 5.6,2013-05-13 03:30:00,
2013-05-12 23:00:00,65.8,56.5,30.03,NNE,22,0.0,5.0,72,0.00,,,-99.99,WeatherLink 5.6,2013-05-13 04:00:00,
2013-05-12 23:30:00,65.0,56.1,30.03,North,0,0.0,5.0,73,0.00,,,-99.99,WeatherLink 5.6,2013-05-13 04:30:00,